FW1786 Weather Reports


Display with metric or nautical units.
time (UTC)temp
F
wind
direction
speed
MPH
gust
MPH
rain 1hr
in
rain 24hr
in
rain mn
in
humidity
%
barometer
mb
20260503004507 59 22 0.0 1.0 0.00 0.00 0.00 45 1019.1
20260503003011 61 331 0.0 4.0 0.00 0.00 0.00 40 1019.0
20260503001505 62 48 0.0 5.0 0.00 0.00 0.00 39 1019.0
20260503000012 63 40 3.0 9.0 0.00 0.00 0.00 34 1018.9
20260502234512 64 31 1.0 6.0 0.00 0.00 0.00 37 1019.0
20260502233014 64 329 2.0 8.0 0.00 0.00 0.00 34 1018.9
20260502231516 65 196 3.0 10.0 0.00 0.00 0.00 30 1018.9
20260502230008 65 261 1.0 8.0 0.00 0.00 0.00 30 1018.9
20260502224510 66 267 2.0 9.0 0.00 0.00 0.00 30 1018.9
20260502223004 66 327 3.0 11.0 0.00 0.00 0.00 35 1018.9
20260502221521 66 62 1.0 7.0 0.00 0.00 0.00 33 1018.8
20260502220031 66 5 3.0 9.0 0.00 0.00 0.00 32 1018.9
20260502214510 66 327 1.0 7.0 0.00 0.00 0.00 34 1019.1
20260502213016 67 55 2.0 11.0 0.00 0.00 0.00 37 1019.1
20260502211520 66 336 2.0 7.0 0.00 0.00 0.00 33 1019.2
20260502210008 67 300 2.0 8.0 0.00 0.00 0.00 35 1019.4
20260502204506 66 44 1.0 12.0 0.00 0.00 0.00 35 1019.4
20260502203014 67 348 3.0 12.0 0.00 0.00 0.00 37 1019.5
20260502201516 66 60 3.0 8.0 0.00 0.00 0.00 33 1019.7
20260502200017 66 339 3.0 9.0 0.00 0.00 0.00 33 1019.7
20260502194517 66 261 2.0 14.0 0.00 0.00 0.00 35 1019.7
20260502193014 66 338 3.0 13.0 0.00 0.00 0.00 38 1019.8
20260502191510 66 98 2.0 12.0 0.00 0.00 0.00 35 1019.9
20260502190010 67 213 3.0 15.0 0.00 0.00 0.00 36 1020.1
20260502184513 66 215 3.0 13.0 0.00 0.00 0.00 39 1020.0
20260502183013 65 22 4.0 16.0 0.00 0.00 0.00 34 1020.5
20260502181514 65 331 5.0 14.0 0.00 0.00 0.00 31 1020.6
20260502163018 63 217 4.0 11.0 0.00 0.00 0.00 39 1021.1
20260502161514 62 49 2.0 9.0 0.00 0.00 0.00 37 1021.0
20260502151524 58 103 2.0 10.0 0.00 0.00 0.00 43 1021.2
20260502123022 42 192 0.0 2.0 0.00 0.00 0.00 89 1020.2
20260502121524 41 167 1.0 3.0 0.00 0.00 0.00 90 1020.0
20260502114520 40 206 0.0 1.0 0.00 0.00 0.00 90 1019.4
20260502113019 41 206 0.0 1.0 0.00 0.00 0.00 89 1019.4
20260502111516 41 202 0.0 1.0 0.00 0.00 0.00 88 1019.2
20260502110019 41 180 0.0 2.0 0.00 0.00 0.00 87 1019.1
20260502104538 41 186 0.0 3.0 0.00 0.00 0.00 87 1019.1
20260502103025 41 165 1.0 2.0 0.00 0.00 0.00 86 1019.0
20260502101524 41 190 1.0 4.0 0.00 0.00 0.00 85 1018.9
20260502091524 41 183 0.0 2.0 0.00 0.00 0.00 85 1018.7
20260502071510 42 212 0.0 2.0 0.00 0.00 0.00 86 1018.5
20260502070009 42 193 0.0 2.0 0.00 0.00 0.00 85 1018.5
20260502064515 42 194 0.0 2.0 0.00 0.00 0.00 85 1018.6
20260502063007 42 190 0.0 2.0 0.00 0.00 0.00 85 1018.7
20260502061515 42 182 0.0 1.0 0.00 0.00 0.00 86 1018.7
20260502060016 42 182 0.0 0.0 0.00 0.00 0.00 85 1018.7
20260502054518 43 182 0.0 0.0 0.00 0.00 0.00 83 1018.8
20260502053008 44 182 0.0 1.0 0.00 0.00 0.00 81 1018.8
20260502051529 45 182 0.0 3.0 0.00 0.00 0.00 81 1018.8
20260502050016 45 184 0.0 2.0 0.00 0.00 0.00 80 1018.8
20260502044515 46 183 0.0 3.0 0.00 0.00 0.00 79 1018.7
20260502043018 46 184 0.0 4.0 0.00 0.00 0.00 78 1018.7
20260502041512 47 184 1.0 3.0 0.00 0.00 0.00 77 1018.9
20260502040014 47 194 1.0 4.0 0.00 0.00 0.00 76 1018.8
20260502034534 48 185 1.0 3.0 0.00 0.00 0.00 74 1019.1
20260502033025 49 178 0.0 4.0 0.00 0.00 0.00 73 1018.9
20260502031521 49 192 0.0 2.0 0.00 0.00 0.00 72 1019.0
20260502030012 50 187 0.0 2.0 0.00 0.00 0.00 70 1018.9
20260502024516 50 189 1.0 3.0 0.00 0.00 0.00 70 1018.8
20260502023016 51 198 1.0 3.0 0.00 0.00 0.00 67 1018.7
20260502021519 52 205 0.0 1.0 0.00 0.00 0.00 65 1018.6
20260502020008 53 209 0.0 1.0 0.00 0.00 0.00 62 1018.3
20260502014513 52 209 0.0 1.0 0.00 0.00 0.00 63 1018.3
20260502013012 53 209 0.0 1.0 0.00 0.00 0.00 61 1018.1
20260502011525 54 209 0.0 1.0 0.00 0.00 0.00 56 1018.0
20260502010007 56 210 0.0 1.0 0.00 0.00 0.00 53 1017.6